This is the latest recevied weather packets stored in our database for station/object IQ0OG-3. If no packets are shown the sender has not sent any weather packets the latest 10 day(s).
| Time | Temp. | Humidity | Pressure | Rain* | Wind** | Luminosity | Snow |
|---|---|---|---|---|---|---|---|
| 1777753202 | 13.33° C | 68% | 1020.9 hPa | 0 mm | - | - | - |
| 1777749002 | 13.33° C | 66% | 1020.8 hPa | 0 mm | - | - | - |
| 1777748402 | 13.33° C | 69% | 1020.7 hPa | 0 mm | - | - | - |
| 1777738202 | 15.56° C | 60% | 1020.5 hPa | 0 mm | - | - | - |
| 1777737001 | 15.56° C | 61% | 1020.5 hPa | 0 mm | - | - | - |
| 1777734602 | 16.11° C | 64% | 1020.5 hPa | 0 mm | - | - | - |
| 1777731602 | 16.67° C | 62% | 1020.7 hPa | 0 mm | - | - | - |
| 1777726201 | 18.89° C | 44% | 1021.5 hPa | 0 mm | - | - | - |
| 1777720802 | 19.44° C | 49% | 1021.8 hPa | 0 mm | - | - | - |
| 1777720201 | 18.33° C | 50% | 1022 hPa | 0 mm | - | - | - |
| 1777719001 | 18.33° C | 50% | 1022.1 hPa | 0 mm | - | - | - |
| 1777717201 | 16.67° C | 55% | 1022.4 hPa | 0 mm | - | - | - |
| 1777713601 | 17.78° C | 55% | 1022.2 hPa | 0 mm | - | - | - |
| 1777711800 | 17.78° C | 56% | 1022.2 hPa | 0 mm | - | - | - |
| 1777705800 | 16.11° C | 58% | 1021.9 hPa | 0 mm | - | - | - |
| 1777699801 | 15.56° C | 43% | 1021.7 hPa | 0 mm | - | - | - |
| 1777696200 | 11.67° C | 48% | 1021.2 hPa | 0 mm | - | - | - |
| 1777681200 | 11.67° C | 53% | 1021.6 hPa | 0 mm | - | - | - |
| 1777664400 | 11.11° C | 58% | 1021.3 hPa | 0 mm | - | - | - |
| 1777658401 | 12.22° C | 65% | 1020.5 hPa | 0 mm | - | - | - |
| 1777656598 | 12.78° C | 64% | 1020.4 hPa | 0 mm | - | - | - |
| 1777651199 | 15.56° C | 59% | 1020.1 hPa | 0 mm | - | - | - |
| 1777649399 | 16.11° C | 60% | 1020 hPa | 0 mm | - | - | - |
| 1777643398 | 17.78° C | 62% | 1019.9 hPa | 0 mm | - | - | - |
| 1777634398 | 18.89° C | 60% | 1020.3 hPa | 0 mm | - | - | - |
* Rain latest hour (hover to see other rain measurements)
** Current wind speed in m/s (hover to see current wind gust speed)